Regional Weather Roundup
Issued by NWS

Home | Current Version | Previous Version | Text Only | Print | Product List | Glossary On
Versions: 1 2 3 4 5 6 7 8 9 10 11 12 13 14 15 16 17 18 19 20 21 22 23 24 25 26 27 28 29 30 31 32 33 34 35 36 37 38 39 40 41 42 43 44 45 46 47 48 49 50
000
ASUS43 KDTX 242210
RWRMI
MICHIGAN HOURLY REGIONAL WEATHER ROUNDUP
NATIONAL WEATHER SERVICE DETROIT/PONTIAC MI
600 PM EDT FRI APR 24 2015

NOTE: "FAIR" INDICATES FEW OR NO CLOUDS BELOW 12,000 FEET WITH NO
SIGNIFICANT WEATHER AND/OR OBSTRUCTION TO VISIBILITY.

MIZ047>049-052>055-059>063-066>070-074>076-081>083-242300-
SOUTHEAST LOWER MICHIGAN

CITY           SKY/WX    TMP DP  RH WIND       PRES   REMARKS
ADRIAN         SUNNY     58  21  24 VRB5      29.98F
ALMA           SUNNY     54  17  23 NW5       29.99S
ANN ARBOR      SUNNY     57  16  20 NW8       29.98F
BAD AXE        SUNNY     45  30  56 E12       30.02S
CARO           SUNNY     51  23  33 CALM      29.99F
DETROIT CITY   SUNNY     52  26  36 SE9       29.99F
DETROIT        MOSUNNY   58  17  20 CALM      29.99F
FLINT          SUNNY     55  20  25 VRB7      30.00S
GROSSE ILE     SUNNY     52  32  46 SE8       29.98F
HILLSDALE      SUNNY     58  20  22 N3        29.97F
HOWELL         SUNNY     55  17  22 NW8       29.98F

CITY           SKY/WX    TMP DP  RH WIND       PRES   REMARKS
JACKSON        SUNNY     58  19  22 MISG      29.97F
LAMBERTVILLE   SUNNY     59  21  23 W7        29.98F
LANSING        MOSUNNY   56  19  23 NW6       29.99F
LAPEER         FAIR      53  16  23 NW10      30.00S
MASON          MOSUNNY   55  18  23 CALM      29.98S
MONROE         SUNNY     57  19  23 CALM      29.97S
MT. CLEMENS    MOSUNNY   50  22  33 E8        29.98F
PONTIAC        MOSUNNY   55  18  23 VRB6      29.98F
PORT HOPE        N/A     36  28  73 E10       30.03S WCI  28
PORT HURON     SUNNY     45  27  49 N9        30.02S
TRI CITIES     SUNNY     55  15  20 VRB5      29.99F
TROY           SUNNY     56  17  21 W8        30.00F
SAGINAW HB     SUNNY     54  19  26 SW6       29.99S
$$
MIZ043>046-050>051-056>058-064>065-071>073-077>080-242300-
SOUTHWEST LOWER MICHIGAN

CITY           SKY/WX    TMP DP  RH WIND       PRES   REMARKS
BATTLE CREEK   SUNNY     57  20  23 CALM      29.97F
BENTON HARBOR  CLOUDY    50  15  24 N5        29.98S
BIG RAPIDS     SUNNY     55  18  22 N9        29.96F
COLDWATER      SUNNY     57  21  25 W5        29.97S
FREMONT        FAIR      55  15  21 W10       29.98S
HOLLAND        MOSUNNY   55  17  22 NW3       29.98F
GRAND RAPIDS   MOSUNNY   57  18  21 VRB3      29.98F
IONIA          FAIR      56  19  23 E3        29.97S
KALAMAZOO      SUNNY     59  20  22 VRB7      29.97F
LUDINGTON      SUNNY     51  18  27 NW8       30.02S
MARSHALL       SUNNY     57  18  22 CALM      29.97S
MOUNT PLEASANT SUNNY     56  18  22 W6        29.98S
MUSKEGON       MOSUNNY   50  16  25 W8        30.01S
SOUTH HAVEN    CLOUDY    53  14  21 N6        29.98F
$$
MIZ016>042-242300-
NORTHERN LOWER MICHIGAN

CITY           SKY/WX    TMP DP  RH WIND       PRES   REMARKS
ALPENA         SUNNY     47  16  29 N13       30.02R
BEAVER ISLAND  MOSUNNY   40  13  32 SW7       30.05S
BELLAIRE       MOSUNNY   45  13  28 NW6       30.04S
CADILLAC       SUNNY     51  20  30 N8        29.98S
CHARLEVOIX     MOSUNNY   42  15  34 CALM      30.08S
FRANKFORT      SUNNY     46   9  22 N10       30.04F
GAYLORD        SUNNY     43   8  23 MISG      30.01S
GRAYLING       SUNNY     48  13  25 N9        30.00F
HARBOR SPRINGS SUNNY     37  23  56 SW6       30.04S WCI  33
HOUGHTON LAKE  SUNNY     49  13  23 W9        30.00S
MANISTEE       SUNNY     46  21  36 N9        30.03F
OSCODA         SUNNY     38  25  58 E10       30.04R WCI  31
PELLSTON       SUNNY     44  13  28 VRB7      30.04S
ROGERS CITY    SUNNY     41  20  43 N13       30.04S
TRAVERSE CITY  MOSUNNY   44  15  31 N9        30.04S
$$
MIZ007>008-015-242300-
EASTERN UPPER MICHIGAN

CITY           SKY/WX    TMP DP  RH WIND       PRES   REMARKS
KINROSS        SUNNY     36  18  48 N14       30.05R WCI  27
MACKINAC ISLAN SUNNY     43  19  39 NE7       30.03S
NEWBERRY       SUNNY     39  20  47 N10G18    30.04S WCI  32
S. S. MARIE    SUNNY     36  16  44 NW12G22   30.05S WCI  28
MUNISING         N/A     37  21  52 NE20      30.03F WCI  27
$$
MIZ004>006-011>014-085-242300-
CENTRAL UPPER MICHIGAN

CITY           SKY/WX    TMP DP  RH WIND       PRES   REMARKS
MANISTIQUE     SUNNY     38  26  62 S8        30.03F WCI  32
ESCANABA       CLOUDY    41  25  52 SE10      30.02F
MENOMINEE      CLOUDY    43  23  45 SE12      30.01F
SAWYER-GWINN   SUNNY     41  18  38 NE16      29.99F
$$
MIZ001>003-009>011-084-242300-
WESTERN UPPER MICHIGAN

CITY           SKY/WX    TMP DP  RH WIND       PRES   REMARKS
IRON MOUNTAIN  CLOUDY    50  22  33 SE13      29.95F
HOUGHTON       MOSUNNY   38  21  50 E12       30.01S WCI  30
COPPER HARBOR    N/A     36  26  67 E10       30.04F WCI  28
IRONWOOD       CLOUDY    43  32  65 SW8       29.94S
$$

ABBREVIATIONS USED IN REMARKS
   TC - TEMPERATURE IN CELSIUS
  WCI - WIND CHILL INDEX
   HX - HEAT INDEX
  VSB - VISIBILITY




USA.gov is the U.S. government's official web portal to all federal, state and local government web resources and services.